Weather History for KCAV - February, 2013

Change the Weather History Date:

Thursday, February 28, 2013

  Actual Average Record
Temperature  
Mean Temperature 24 °F -  
Max Temperature 28 °F 36 °F 61 °F (1976)
Min Temperature 19 °F 21 °F -25 °F (1962)
Degree Days  
Heating Degree Days 42    
Moisture  
Dew Point 21 °F    
Average Humidity 84    
Maximum Humidity 93    
Minimum Humidity 80    
Precipitation  
Precipitation 0.00 in - - ()
Sea Level Pressure  
Sea Level Pressure 30.10 in    
Wind  
Wind Speed 13 mph (NNW)    
Max Wind Speed 18 mph    
Max Gust Speed 24 mph    
Visibility 10 miles    
Events Rain    
Averages and records for this station are not official NWS values.
T = Trace of Precipitation, MM = Missing Value Source: NWS Daily Summary

Daily Weather History Graph

Daily Weather History Graph

Search for Another Location

Airport or City:

Trip Planner

Search our weather history database for the weather conditions in past years. The results will help you decide how hot, cold, wet, or windy it might be!

Date:

Astronomy

Feb. 28, 2013 Rise Set
Actual Time 6:51 AM CST 6:03 PM CST
Civil Twilight 6:23 AM CST 6:32 PM CST
Nautical Twilight 5:50 AM CST 7:04 PM CST
Astronomical Twilight 5:18 AM CST 7:37 PM CST
Moon 9:37 PM CST (2/28) 7:56 AM CST (2/28)
Length of Visible Light 12h 08m
Length of Day
11h 11m
Waning Gibbous, 90% of the Moon is Illuminated
Feb 28
Waning Gibbous
Mar 4
Last Quarter
Mar 11
New
Mar 19
First Quarter
Mar 27
Full

Hourly Weather History & Observations

Time (CST) Temp. Windchill Dew Point Humidity Pressure Visibility Wind Dir Wind Speed Gust Speed Precip Events Conditions
12:15 AM 21.2 °F 7.3 °F 17.6 °F 86% 29.98 in 9.0 mi NNW 16.1 mph - N/A   Overcast
12:35 AM 21.2 °F 7.8 °F 17.6 °F 86% 29.98 in 10.0 mi NNW 15.0 mph 20.7 mph N/A   Overcast
12:55 AM 21.2 °F 7.8 °F 17.6 °F 86% 29.99 in 10.0 mi NNW 15.0 mph 21.9 mph N/A   Overcast
1:15 AM 21.2 °F 7.3 °F 19.4 °F 93% 29.99 in 10.0 mi NNW 16.1 mph - N/A   Overcast
1:35 AM 21.2 °F 7.3 °F 19.4 °F 93% 30.00 in 10.0 mi NW 16.1 mph - N/A   Overcast
1:55 AM 23.0 °F 9.2 °F 19.4 °F 86% 30.00 in 10.0 mi NNW 17.3 mph - N/A   Overcast
2:15 AM 21.2 °F 7.8 °F 19.4 °F 93% 30.01 in 10.0 mi NNW 15.0 mph - N/A   Overcast
2:35 AM 21.2 °F 7.3 °F 17.6 °F 86% 30.01 in 10.0 mi NNW 16.1 mph 23.0 mph N/A   Overcast
2:55 AM 21.2 °F 8.3 °F 17.6 °F 86% 30.01 in 10.0 mi NNW 13.8 mph - N/A   Overcast
3:15 AM 19.4 °F 6.0 °F 15.8 °F 86% 30.01 in 10.0 mi NNW 13.8 mph - N/A   Overcast
3:55 AM 19.4 °F 7.2 °F 15.8 °F 86% 30.02 in 10.0 mi NNW 11.5 mph - N/A   Partly Cloudy
4:35 AM 19.4 °F 6.0 °F 15.8 °F 86% 30.03 in 10.0 mi NNW 13.8 mph - N/A   Mostly Cloudy
4:55 AM 19.4 °F 6.0 °F 15.8 °F 86% 30.04 in 10.0 mi NNW 13.8 mph - N/A   Overcast
5:15 AM 19.4 °F 6.6 °F 15.8 °F 86% 30.04 in 10.0 mi NNW 12.7 mph 18.4 mph N/A   Overcast
5:35 AM 19.4 °F 7.9 °F 15.8 °F 86% 30.05 in 10.0 mi NNW 10.4 mph - N/A   Overcast
5:55 AM 19.4 °F 7.9 °F 15.8 °F 86% 30.06 in 9.0 mi NNW 10.4 mph - N/A   Overcast
6:15 AM 19.4 °F 7.9 °F 15.8 °F 86% 30.06 in 10.0 mi NNW 10.4 mph - N/A   Overcast
6:35 AM 19.4 °F 7.2 °F 15.8 °F 86% 30.06 in 9.0 mi NNW 11.5 mph - N/A   Mostly Cloudy
6:55 AM 21.2 °F 10.1 °F 17.6 °F 86% 30.06 in 9.0 mi NNW 10.4 mph 17.3 mph N/A   Overcast
7:15 AM 21.2 °F 10.1 °F 17.6 °F 86% 30.07 in 9.0 mi NNW 10.4 mph - N/A   Overcast
7:35 AM 21.2 °F 9.5 °F 17.6 °F 86% 30.08 in 9.0 mi NNW 11.5 mph - N/A   Overcast
7:55 AM 23.0 °F 8.7 °F 17.6 °F 80% 30.08 in 9.0 mi NNW 18.4 mph 24.2 mph N/A   Overcast
8:15 AM 23.0 °F 10.1 °F 19.4 °F 86% 30.09 in 10.0 mi NNW 15.0 mph 20.7 mph N/A   Overcast
8:35 AM 23.0 °F 10.1 °F 19.4 °F 86% 30.10 in 9.0 mi NNW 15.0 mph - N/A   Overcast
8:55 AM 24.8 °F 12.9 °F 19.4 °F 80% 30.10 in 10.0 mi NNW 13.8 mph - N/A   Overcast
9:15 AM 24.8 °F 13.4 °F 21.2 °F 86% 30.10 in 10.0 mi NNW 12.7 mph - N/A   Overcast
9:35 AM 24.8 °F 12.9 °F 21.2 °F 86% 30.11 in 10.0 mi NNW 13.8 mph 20.7 mph N/A   Overcast
9:55 AM 26.6 °F 14.7 °F 21.2 °F 80% 30.11 in 10.0 mi NNW 15.0 mph - N/A   Overcast
10:15 AM 26.6 °F 15.2 °F 21.2 °F 80% 30.11 in 10.0 mi NNW 13.8 mph - N/A   Overcast
10:35 AM 26.6 °F 14.7 °F 21.2 °F 80% 30.12 in 10.0 mi NNW 15.0 mph - N/A   Overcast
10:55 AM 26.6 °F 15.7 °F 21.2 °F 80% 30.12 in 10.0 mi NNW 12.7 mph - N/A   Overcast
11:15 AM 26.6 °F 14.3 °F 21.2 °F 80% 30.12 in 10.0 mi NNW 16.1 mph - N/A   Overcast
11:35 AM 28.4 °F 18.0 °F 23.0 °F 80% 30.13 in 10.0 mi NNW 12.7 mph - N/A   Overcast
11:55 AM 28.4 °F 17.0 °F 23.0 °F 80% 30.13 in 10.0 mi NNW 15.0 mph 20.7 mph N/A   Overcast
12:15 PM 28.4 °F 18.0 °F 23.0 °F 80% 30.12 in 10.0 mi NNW 12.7 mph 19.6 mph N/A   Overcast
12:35 PM 28.4 °F 18.0 °F 23.0 °F 80% 30.12 in 10.0 mi North 12.7 mph 20.7 mph N/A Rain Light Freezing Rain
12:55 PM 28.4 °F 18.5 °F 23.0 °F 80% 30.12 in 10.0 mi NNW 11.5 mph 20.7 mph N/A Rain Light Freezing Rain
1:15 PM 28.4 °F 17.0 °F 23.0 °F 80% 30.12 in 10.0 mi NNW 15.0 mph - N/A Rain Light Freezing Rain
1:35 PM 28.4 °F 17.5 °F 23.0 °F 80% 30.12 in 10.0 mi NNW 13.8 mph 19.6 mph N/A   Overcast
1:55 PM 28.4 °F 17.0 °F 23.0 °F 80% 30.11 in 10.0 mi NNW 15.0 mph - N/A   Overcast
2:15 PM 28.4 °F 17.0 °F 23.0 °F 80% 30.11 in 10.0 mi NNW 15.0 mph - N/A   Overcast
2:35 PM 28.4 °F 17.5 °F 23.0 °F 80% 30.12 in 10.0 mi NNW 13.8 mph - N/A   Overcast
2:55 PM 28.4 °F 18.0 °F 23.0 °F 80% 30.12 in 10.0 mi NNW 12.7 mph - N/A   Overcast
3:15 PM 28.4 °F 17.5 °F 23.0 °F 80% 30.12 in 10.0 mi NNW 13.8 mph - N/A   Overcast
3:35 PM 28.4 °F 17.5 °F 23.0 °F 80% 30.12 in 10.0 mi NNW 13.8 mph - N/A   Overcast
3:55 PM 28.4 °F 17.0 °F 23.0 °F 80% 30.13 in 10.0 mi NNW 15.0 mph - N/A   Overcast
4:15 PM 28.4 °F 18.0 °F 23.0 °F 80% 30.13 in 9.0 mi NNW 12.7 mph - N/A   Light Freezing Rain
4:35 PM 28.4 °F 18.5 °F 23.0 °F 80% 30.13 in 10.0 mi NNW 11.5 mph 17.3 mph N/A   Overcast
4:55 PM 26.6 °F 15.7 °F 23.0 °F 86% 30.13 in 7.0 mi NNW 12.7 mph - N/A Rain Light Freezing Rain
5:15 PM 26.6 °F 17.5 °F 23.0 °F 86% 30.13 in 8.0 mi NNW 9.2 mph - N/A Rain Light Freezing Rain
5:35 PM 26.6 °F 17.5 °F 23.0 °F 86% 30.14 in 7.0 mi NNW 9.2 mph 16.1 mph N/A Rain Light Freezing Rain
5:55 PM 26.6 °F 16.2 °F 24.8 °F 93% 30.14 in 8.0 mi NNW 11.5 mph - N/A Rain Light Freezing Rain
6:15 PM 26.6 °F 16.8 °F 24.8 °F 93% 30.15 in 8.0 mi NNW 10.4 mph 16.1 mph N/A Rain Light Freezing Rain
6:35 PM 26.6 °F 16.8 °F 24.8 °F 93% 30.15 in 10.0 mi NNW 10.4 mph - N/A Rain Light Freezing Rain
7:15 PM 26.6 °F 19.1 °F 23.0 °F 86% 30.16 in 10.0 mi North 6.9 mph - N/A   Overcast
7:35 PM 26.6 °F 19.1 °F 23.0 °F 86% 30.16 in 10.0 mi North 6.9 mph - N/A   Overcast
7:55 PM 26.6 °F 20.0 °F 23.0 °F 86% 30.16 in 10.0 mi North 5.8 mph - N/A   Overcast
8:15 PM 26.6 °F 19.1 °F 23.0 °F 86% 30.15 in 10.0 mi NNW 6.9 mph - N/A   Overcast
8:35 PM 26.6 °F 17.5 °F 21.2 °F 80% 30.15 in 10.0 mi NNW 9.2 mph - N/A   Overcast
8:55 PM 26.6 °F 18.2 °F 21.2 °F 80% 30.16 in 10.0 mi NNW 8.1 mph - N/A   Overcast
9:15 PM 26.6 °F 19.1 °F 21.2 °F 80% 30.16 in 10.0 mi NNW 6.9 mph - N/A   Overcast
9:35 PM 26.6 °F 18.2 °F 21.2 °F 80% 30.16 in 10.0 mi NNW 8.1 mph - N/A   Overcast
9:55 PM 26.6 °F 17.5 °F 23.0 °F 86% 30.16 in 10.0 mi NNW 9.2 mph - N/A   Overcast
10:15 PM 24.8 °F 16.1 °F 21.2 °F 86% 30.16 in 10.0 mi NNW 8.1 mph - N/A   Overcast
10:55 PM 24.8 °F 15.3 °F 21.2 °F 86% 30.16 in 10.0 mi NNW 9.2 mph - N/A Rain Light Freezing Rain
11:15 PM 24.8 °F 15.3 °F 21.2 °F 86% 30.16 in 10.0 mi NNW 9.2 mph - N/A   Overcast
11:35 PM 24.8 °F 15.3 °F 21.2 °F 86% 30.15 in 10.0 mi NNW 9.2 mph - N/A Rain Light Freezing Rain